This demonstration page uses our WeatherBlox Daily Observations layout. Learn more.

Left ArrowRight Arrow

47.50024, -111.30081

Hourly Observations for June 1, 2020

Temp ( °F °C ) Dew Point ( °F °C ) Humidity (%) Winds ( mph kmh ) Pressure ( in mb ) Visibility ( mi km ) Precip ( " mm )
12:53 am 00:53 Clear 51 10.6 36 2.2 56 56 W 5 7 29.88 1012 10 16 0.00 0.00
1:53 am 01:53 Clear 52 11.1 36 2.2 55 55 WSW 9 15 29.88 1012 10 16 0.00 0.00
2:53 am 02:53 Clear 47 8.3 36 2.2 66 66 SW 8 13 29.89 1012 10 16 0.00 0.00
3:53 am 03:53 Clear 50 10 35 1.7 57 57 SSW 12 19 29.89 1012 10 16 0.00 0.00
4:53 am 04:53 Clear 47 8.3 35 1.7 63 63 SW 13 20 29.91 1013 10 16 0.00 0.00
5:53 am 05:53 Sunny 47 8.3 37 2.8 69 69 SSW 10 17 29.92 1013 10 16 0.00 0.00
6:53 am 06:53 Sunny 52 11.1 38 3.3 59 59 SW 10 17 29.92 1013 10 16 0.00 0.00
7:53 am 07:53 Sunny 55 12.8 38 3.3 53 53 SSW 13 20 29.92 1013 10 16 0.00 0.00
8:53 am 08:53 Sunny 59 15 38 3.3 46 46 SSW 14 22 29.93 1014 10 16 0.00 0.00
9:53 am 09:53 Sunny 61 16.1 36 2.2 39 39 SW 15 24 29.94 1014 10 16 0.00 0.00
10:53 am 10:53 Mostly Sunny 64 17.8 36 2.2 35 35 SW 13 20 29.93 1014 10 16 0.00 0.00
11:53 am 11:53 Sunny 64 17.8 37 2.8 37 37 SSW 12 19 29.94 1014 10 16 0.00 0.00
12:53 pm 12:53 Sunny 67 19.4 37 2.8 33 33 WSW 7 11 29.93 1014 10 16 0.00 0.00
1:53 pm 13:53 Sunny 69 20.6 36 2.2 30 30 SW 10 17 29.91 1013 10 16 0.00 0.00
2:53 pm 14:53 Sunny 72 22.2 37 2.8 28 28 NNW 9 15 29.89 1012 10 16 0.00 0.00
3:53 pm 15:53 Mostly Sunny 73 22.8 38 3.3 28 28 Calm 29.88 1012 10 16 0.00 0.00
4:53 pm 16:53 Cloudy 72 22.2 40 4.4 31 31 W 6 9 29.89 1012 10 16 0.00 0.00
5:53 pm 17:53 Cloudy with Light Rain 68 20 39 3.9 35 35 W 8 13 29.92 1013 10 16 0.00 0.00
6:53 pm 18:53 Cloudy 65 18.3 42 5.6 43 43 W 18 30 29.93 1014 10 16 0.00 0.00
7:53 pm 19:53 Cloudy 62 16.7 38 3.3 41 41 W 17 28 29.97 1015 10 16 0.00 0.00
8:53 pm 20:53 Cloudy 61 16.1 37 2.8 41 41 WSW 15 24 29.97 1015 10 16 0.00 0.00
9:53 pm 21:53 Cloudy 60 15.6 37 2.8 42 42 W 14 22 30.00 1016 10 16 0.00 0.00
10:53 pm 22:53 Clear 55 12.8 39 3.9 55 55 W 15 24 30.03 1017 10 16 0.00 0.00
11:53 pm 23:53 Clear 50 10 39 3.9 66 66 SW 13 20 30.06 1018 10 16 0.00 0.00

Powered by AerisWeather